Total_Precipitation_Accumulation
0.00 0.00 0.01 0.01 0.02 0.01 0.01 0.00 0.04 0.08 0.13 0.17 0.16 0.06 0.03 0.14 0.11 0.06 0.06 0.14 0.34 0.49 0.64 0.66 0.55 0.39 0.26 0.14 0.06 0.02 0.04 0.01
0.00 0.00 0.01 0.02 0.03 0.01 0.00 0.00 0.02 0.06 0.12 0.19 0.37 0.35 0.13 0.07 0.05 0.05 0.12 0.23 0.25 0.24 0.41 0.48 0.44 0.31 0.22 0.13 0.05 0.04 0.03 0.01
0.00 0.00 0.00 0.02 0.03 0.04 0.02 0.02 0.04 0.02 0.03 0.07 0.20 0.25 0.16 0.10 0.12 0.04 0.08 0.23 0.45 0.51 0.48 0.41 0.36 0.31 0.20 0.13 0.08 0.02 0.03 0.01
0.00 0.00 0.00 0.01 0.02 0.03 0.02 0.04 0.02 0.01 0.02 0.01 0.12 0.15 0.19 0.14 0.10 0.05 0.07 0.22 0.51 0.65 0.68 0.52 0.39 0.21 0.19 0.14 0.03 0.05 0.01 0.01
0.00 0.00 0.00 0.00 0.01 0.02 0.02 0.03 0.03 0.01 0.03 0.03 0.05 0.06 0.16 0.22 0.08 0.11 0.11 0.41 0.55 0.57 0.44 0.37 0.34 0.28 0.14 0.08 0.10 0.04 0.02 0.00
0.00 0.00 0.00 0.00 0.00 0.01 0.01 0.01 0.01 0.01 0.01 0.04 0.07 0.08 0.08 0.09 0.09 0.18 0.34 0.75 0.54 0.34 0.21 0.24 0.32 0.35 0.23 0.21 0.04 0.03 0.02 0.00
0.00 0.00 0.00 0.00 0.00 0.00 0.00 0.01 0.01 0.01 0.00 0.00 0.04 0.08 0.07 0.09 0.13 0.24 0.35 0.67 0.76 0.38 0.20 0.24 0.27 0.33 0.28 0.20 0.03 0.02 0.01 0.00
0.00 0.00 0.00 0.00 0.00 0.00 0.00 0.00 0.01 0.01 0.01 0.00 0.01 0.06 0.09 0.14 0.19 0.22 0.25 0.47 0.60 0.48 0.18 0.22 0.25 0.24 0.26 0.14 0.01 0.02 0.01 0.00
0.00 0.00 0.00 0.00 0.00 0.00 0.00 0.00 0.00 0.01 0.01 0.01 0.01 0.05 0.10 0.20 0.28 0.23 0.23 0.32 0.29 0.38 0.26 0.30 0.28 0.26 0.20 0.12 0.01 0.00 0.00 0.00
0.00 0.00 0.00 0.00 0.00 0.00 0.00 0.00 0.00 0.01 0.01 0.03 0.03 0.05 0.12 0.32 0.32 0.29 0.33 0.28 0.18 0.20 0.11 0.22 0.31 0.26 0.20 0.08 0.01 0.00 0.00 0.00
0.00 0.00 0.00 0.00 0.00 0.00 0.00 0.00 0.01 0.00 0.01 0.03 0.08 0.14 0.20 0.41 0.44 0.34 0.35 0.31 0.15 0.10 0.07 0.11 0.23 0.26 0.17 0.07 0.00 0.00 0.00 0.00
0.00 0.00 0.00 0.00 0.00 0.01 0.01 0.01 0.01 0.01 0.01 0.03 0.20 0.46 0.36 0.48 0.57 0.40 0.33 0.27 0.20 0.11 0.06 0.13 0.16 0.15 0.12 0.05 0.00 0.00 0.00 0.00
0.00 0.00 0.00 0.00 0.00 0.00 0.01 0.01 0.02 0.02 0.02 0.04 0.12 0.46 0.53 0.50 0.55 0.47 0.40 0.25 0.17 0.11 0.04 0.07 0.20 0.19 0.12 0.04 0.02 0.01 0.00 0.00
0.00 0.00 0.00 0.00 0.00 0.00 0.00 0.00 0.01 0.01 0.02 0.05 0.19 0.41 0.43 0.44 0.53 0.48 0.39 0.34 0.32 0.21 0.06 0.06 0.15 0.18 0.09 0.01 0.04 0.04 0.01 0.00
0.00 0.00 0.00 0.00 0.00 0.00 0.00 0.00 0.01 0.02 0.02 0.04 0.09 0.17 0.34 0.28 0.39 0.49 0.40 0.41 0.45 0.31 0.09 0.04 0.06 0.16 0.07 0.01 0.01 0.02 0.01 0.01
0.00 0.00 0.00 0.00 0.00 0.00 0.00 0.00 0.00 0.00 0.01 0.02 0.03 0.07 0.19 0.26 0.20 0.39 0.33 0.38 0.39 0.31 0.15 0.08 0.06 0.07 0.04 0.01 0.00 0.00 0.00 0.02
0.00 0.00 0.00 0.00 0.00 0.00 0.00 0.00 0.00 0.00 0.01 0.02 0.03 0.02 0.15 0.24 0.35 0.37 0.39 0.38 0.32 0.21 0.17 0.12 0.08 0.05 0.00 0.01 0.01 0.01 0.02 0.01
0.00 0.00 0.00 0.00 0.00 0.00 0.00 0.00 0.00 0.00 0.01 0.02 0.02 0.02 0.05 0.18 0.39 0.46 0.44 0.44 0.41 0.22 0.15 0.11 0.08 0.09 0.04 0.03 0.01 0.02 0.02 0.02
0.00 0.00 0.00 0.00 0.00 0.00 0.00 0.00 0.00 0.00 0.01 0.01 0.01 0.02 0.02 0.06 0.14 0.33 0.37 0.44 0.40 0.34 0.22 0.14 0.15 0.12 0.07 0.05 0.03 0.03 0.01 0.01
0.00 0.00 0.00 0.00 0.00 0.00 0.00 0.00 0.00 0.00 0.00 0.01 0.01 0.01 0.01 0.02 0.04 0.12 0.28 0.41 0.35 0.32 0.29 0.18 0.15 0.13 0.08 0.05 0.04 0.03 0.01 0.00